WWA152 MMUN-MKJP

Flight info

Callsign WWA152
Flight time 1h 24m
Altitude 37000
Route HECAT2A HECAT UJ52 ILUBA UL577 MAMBI UR640 KEMBO ELSER6
Aircraft A319/M-SDE3FGHIRWY/LB1

Departure

Time 2026-05-09 15:04
Airport Cancún International Airport (MMUN)

Arrival

Time 2026-05-09 16:29
Airport Norman Manley International Airport (MKJP)
Time Latitude Longitude Altitude Speed Heading
2026-05-09 14:35 21.04071 -86.87646 28 ft 0 kts 168°
2026-05-09 14:53 21.04072 -86.87646 28 ft 1 kts 169°
2026-05-09 14:53 21.04087 -86.87650 28 ft 2 kts 168°
2026-05-09 14:53 21.04102 -86.87653 28 ft 2 kts 169°
2026-05-09 14:53 21.04117 -86.87656 29 ft 2 kts 168°
2026-05-09 14:54 21.04131 -86.87659 29 ft 2 kts 169°
2026-05-09 14:54 21.04144 -86.87663 29 ft 0 kts 168°
2026-05-09 14:54 21.04148 -86.87663 29 ft 0 kts 201°
2026-05-09 14:54 21.04152 -86.87661 29 ft 0 kts 251°
2026-05-09 14:55 21.04153 -86.87648 29 ft 2 kts 261°
2026-05-09 14:55 21.04154 -86.87643 29 ft 0 kts 255°
2026-05-09 14:55 21.04153 -86.87643 29 ft 0 kts 255°
2026-05-09 14:57 21.04151 -86.87652 29 ft 2 kts 255°
2026-05-09 14:58 21.04148 -86.87672 29 ft 3 kts 262°
2026-05-09 14:58 21.04143 -86.87704 29 ft 5 kts 260°
2026-05-09 14:58 21.04128 -86.87742 29 ft 6 kts 230°
2026-05-09 14:58 21.04086 -86.87776 28 ft 8 kts 213°
2026-05-09 14:59 21.04029 -86.87816 27 ft 10 kts 213°
2026-05-09 14:59 21.03979 -86.87877 27 ft 11 kts 268°
2026-05-09 14:59 21.04014 -86.87959 28 ft 12 kts 303°
2026-05-09 14:59 21.04062 -86.88036 29 ft 12 kts 303°
2026-05-09 15:00 21.04110 -86.88113 30 ft 12 kts 303°
2026-05-09 15:00 21.04157 -86.88190 31 ft 11 kts 303°
2026-05-09 15:00 21.04208 -86.88271 32 ft 11 kts 304°
2026-05-09 15:00 21.04260 -86.88351 33 ft 12 kts 304°
2026-05-09 15:01 21.04360 -86.88511 36 ft 11 kts 303°
2026-05-09 15:01 21.04408 -86.88589 38 ft 11 kts 303°
2026-05-09 15:01 21.04457 -86.88667 38 ft 11 kts 304°
2026-05-09 15:02 21.04511 -86.88751 39 ft 12 kts 304°
2026-05-09 15:02 21.04566 -86.88838 39 ft 12 kts 303°
2026-05-09 15:02 21.04622 -86.88927 41 ft 12 kts 303°
2026-05-09 15:02 21.04620 -86.89024 40 ft 13 kts 222°
2026-05-09 15:03 21.04524 -86.89078 40 ft 13 kts 172°
2026-05-09 15:03 21.04458 -86.88985 39 ft 15 kts 124°
2026-05-09 15:03 21.04339 -86.88808 37 ft 55 kts 124°
2026-05-09 15:03 21.03960 -86.88201 29 ft 123 kts 123°
2026-05-09 15:04 21.03352 -86.87192 70 ft 170 kts 126°
2026-05-09 15:04 21.02666 -86.86020 719 ft 167 kts 121°
2026-05-09 15:06 20.97561 -86.76078 4747 ft 255 kts 121°
2026-05-09 15:06 20.96555 -86.74240 5593 ft 260 kts 122°
2026-05-09 15:06 20.95531 -86.72443 6436 ft 263 kts 123°
2026-05-09 15:06 20.94415 -86.70641 7202 ft 268 kts 126°
2026-05-09 15:07 20.93206 -86.68797 7866 ft 277 kts 126°
2026-05-09 15:07 20.91975 -86.66943 8590 ft 282 kts 126°
2026-05-09 15:07 20.90711 -86.65027 9259 ft 289 kts 126°
2026-05-09 15:07 20.89441 -86.63103 9946 ft 295 kts 126°
2026-05-09 15:08 20.88137 -86.61130 10570 ft 302 kts 126°
2026-05-09 15:08 20.85354 -86.56923 11176 ft 337 kts 126°
2026-05-09 15:08 20.83863 -86.54671 11461 ft 354 kts 126°
2026-05-09 15:09 20.82318 -86.52335 11736 ft 368 kts 126°
2026-05-09 15:10 20.71596 -86.36162 15301 ft 389 kts 126°
2026-05-09 15:11 20.70069 -86.33790 15764 ft 392 kts 124°
2026-05-09 15:11 20.68668 -86.31265 16219 ft 395 kts 120°
2026-05-09 15:11 20.67453 -86.28652 16658 ft 398 kts 116°
2026-05-09 15:11 20.66323 -86.25925 17089 ft 400 kts 115°
2026-05-09 15:12 20.65211 -86.23197 17507 ft 403 kts 115°
2026-05-09 15:12 20.64088 -86.20438 17907 ft 405 kts 115°
2026-05-09 15:12 20.62958 -86.17675 18281 ft 409 kts 115°
2026-05-09 15:12 20.61825 -86.14907 18656 ft 412 kts 115°
2026-05-09 15:13 20.60671 -86.12092 19036 ft 414 kts 115°
2026-05-09 15:13 20.59520 -86.09292 19402 ft 417 kts 115°
2026-05-09 15:13 20.58346 -86.06435 19759 ft 421 kts 115°
2026-05-09 15:13 20.57172 -86.03599 20113 ft 423 kts 116°
2026-05-09 15:14 20.55866 -86.00764 20490 ft 425 kts 119°
2026-05-09 15:14 20.54408 -85.98008 20862 ft 427 kts 121°
2026-05-09 15:14 20.52915 -85.95303 21208 ft 430 kts 122°
2026-05-09 15:14 20.51389 -85.92548 21546 ft 433 kts 122°
2026-05-09 15:15 20.49852 -85.89774 21867 ft 436 kts 122°
2026-05-09 15:15 20.48308 -85.86992 22190 ft 439 kts 121°
2026-05-09 15:15 20.46758 -85.84193 22523 ft 442 kts 121°
2026-05-09 15:15 20.45193 -85.81367 22846 ft 444 kts 121°
2026-05-09 15:16 20.43617 -85.78522 23176 ft 446 kts 121°
2026-05-09 15:16 20.42020 -85.75638 23498 ft 449 kts 121°
2026-05-09 15:16 20.40428 -85.72768 23786 ft 452 kts 121°
2026-05-09 15:16 20.38833 -85.69891 24065 ft 455 kts 121°
2026-05-09 15:17 20.37213 -85.66973 24366 ft 458 kts 121°
2026-05-09 15:17 20.35604 -85.64075 24656 ft 460 kts 121°
2026-05-09 15:17 20.33969 -85.61131 24939 ft 463 kts 121°
2026-05-09 15:17 20.32329 -85.58180 25215 ft 465 kts 121°
2026-05-09 15:18 20.30675 -85.55205 25504 ft 468 kts 121°
2026-05-09 15:18 20.29006 -85.52203 25790 ft 470 kts 121°
2026-05-09 15:18 20.27356 -85.49238 26079 ft 472 kts 121°
2026-05-09 15:18 20.25670 -85.46207 26369 ft 474 kts 121°
2026-05-09 15:19 20.23984 -85.43181 26636 ft 476 kts 121°
2026-05-09 15:19 20.22305 -85.40170 26877 ft 479 kts 121°
2026-05-09 15:19 20.20643 -85.37080 27132 ft 481 kts 117°
2026-05-09 15:19 20.19249 -85.33860 27396 ft 483 kts 112°
2026-05-09 15:20 20.18159 -85.30483 27757 ft 481 kts 106°
2026-05-09 15:20 20.16609 -85.23601 28472 ft 480 kts 102°
2026-05-09 15:20 20.15881 -85.20127 28818 ft 479 kts 102°
2026-05-09 15:21 20.15156 -85.16673 29165 ft 479 kts 102°
2026-05-09 15:21 20.14428 -85.13232 29520 ft 478 kts 102°
2026-05-09 15:21 20.13692 -85.09780 29903 ft 477 kts 102°
2026-05-09 15:21 20.12960 -85.06368 30295 ft 475 kts 103°
2026-05-09 15:22 20.12222 -85.02938 30696 ft 473 kts 103°
2026-05-09 15:22 20.11498 -84.99580 31092 ft 472 kts 103°
2026-05-09 15:22 20.10767 -84.96197 31485 ft 470 kts 103°
2026-05-09 15:22 20.10035 -84.92815 31832 ft 469 kts 103°
2026-05-09 15:23 20.09303 -84.89437 32174 ft 469 kts 103°
2026-05-09 15:23 20.08570 -84.86065 32546 ft 467 kts 103°
2026-05-09 15:23 20.07842 -84.82712 32936 ft 465 kts 103°
2026-05-09 15:23 20.07119 -84.79396 33319 ft 464 kts 103°
2026-05-09 15:24 20.06390 -84.76054 33670 ft 464 kts 103°
2026-05-09 15:24 20.05662 -84.72714 33986 ft 464 kts 103°
2026-05-09 15:24 20.04933 -84.69373 34287 ft 464 kts 103°
2026-05-09 15:24 20.04214 -84.66081 34589 ft 463 kts 103°
2026-05-09 15:25 20.03485 -84.62748 34905 ft 463 kts 103°
2026-05-09 15:25 20.02757 -84.59419 35201 ft 462 kts 103°
2026-05-09 15:25 20.02029 -84.56091 35441 ft 463 kts 103°
2026-05-09 15:26 20.00564 -84.49411 35813 ft 465 kts 102°
2026-05-09 15:26 19.99834 -84.46085 35983 ft 467 kts 102°
2026-05-09 15:26 19.99098 -84.42734 36154 ft 467 kts 102°
2026-05-09 15:26 19.98353 -84.39345 36319 ft 468 kts 102°
2026-05-09 15:27 19.97619 -84.36009 36463 ft 470 kts 102°
2026-05-09 15:27 19.96863 -84.32574 36581 ft 471 kts 103°
2026-05-09 15:27 19.96110 -84.29164 36698 ft 472 kts 103°
2026-05-09 15:27 19.95366 -84.25796 36826 ft 473 kts 103°
2026-05-09 15:28 19.94612 -84.22385 36958 ft 474 kts 103°
2026-05-09 15:28 19.93864 -84.19003 36990 ft 475 kts 103°
2026-05-09 15:28 19.92345 -84.12151 36996 ft 474 kts 103°
2026-05-09 15:29 19.90836 -84.05358 36999 ft 474 kts 103°
2026-05-09 15:29 19.89312 -83.98498 36995 ft 474 kts 103°
2026-05-09 15:30 19.87768 -83.91565 36988 ft 474 kts 103°
2026-05-09 15:30 19.86227 -83.84664 36987 ft 474 kts 103°
2026-05-09 15:31 19.84699 -83.77840 36985 ft 474 kts 103°
2026-05-09 15:31 19.83179 -83.71062 36985 ft 474 kts 103°
2026-05-09 15:32 19.81645 -83.64233 36985 ft 474 kts 103°
2026-05-09 15:32 19.80123 -83.57462 36985 ft 473 kts 103°
2026-05-09 15:33 19.78597 -83.50684 36985 ft 473 kts 103°
2026-05-09 15:33 19.77070 -83.43927 36985 ft 473 kts 103°
2026-05-09 15:34 19.75537 -83.37151 36985 ft 472 kts 103°
2026-05-09 15:34 19.73951 -83.30157 36985 ft 473 kts 103°
2026-05-09 15:35 19.72341 -83.23070 36985 ft 473 kts 103°
2026-05-09 15:35 19.70742 -83.16039 36985 ft 472 kts 103°
2026-05-09 15:36 19.69114 -83.08898 36985 ft 472 kts 103°
2026-05-09 15:36 19.67455 -83.01627 36985 ft 471 kts 103°
2026-05-09 15:37 19.65783 -82.94325 36987 ft 471 kts 103°
2026-05-09 15:37 19.64096 -82.86974 36987 ft 471 kts 103°
2026-05-09 15:38 19.62425 -82.79703 36992 ft 471 kts 103°
2026-05-09 15:38 19.60742 -82.72395 36997 ft 471 kts 103°
2026-05-09 15:39 19.59063 -82.65107 37002 ft 470 kts 103°
2026-05-09 15:39 19.57371 -82.57789 37005 ft 469 kts 103°
2026-05-09 15:40 19.55688 -82.50523 37006 ft 469 kts 103°
2026-05-09 15:40 19.54004 -82.43261 37006 ft 470 kts 103°
2026-05-09 15:41 19.52335 -82.36086 37006 ft 470 kts 103°
2026-05-09 15:41 19.50685 -82.29002 37006 ft 468 kts 103°
2026-05-09 15:42 19.49022 -82.21871 37006 ft 468 kts 103°
2026-05-09 15:42 19.47343 -82.14690 37006 ft 467 kts 103°
2026-05-09 15:43 19.45662 -82.07507 37006 ft 467 kts 103°
2026-05-09 15:43 19.43972 -82.00329 37006 ft 467 kts 103°
2026-05-09 15:44 19.42269 -81.93133 37007 ft 466 kts 103°
2026-05-09 15:44 19.40568 -81.85957 37004 ft 466 kts 103°
2026-05-09 15:45 19.38859 -81.78757 36998 ft 465 kts 103°
2026-05-09 15:45 19.37157 -81.71604 36997 ft 465 kts 103°
2026-05-09 15:46 19.35447 -81.64425 36998 ft 466 kts 103°
2026-05-09 15:46 19.33724 -81.57204 36999 ft 466 kts 103°
2026-05-09 15:47 19.32006 -81.50024 37002 ft 466 kts 103°
2026-05-09 15:47 19.30295 -81.42879 37006 ft 466 kts 103°
2026-05-09 15:48 19.28605 -81.35796 37009 ft 465 kts 102°
2026-05-09 15:48 19.27057 -81.28725 37009 ft 465 kts 102°
2026-05-09 15:49 19.25567 -81.21855 37008 ft 466 kts 102°
2026-05-09 15:49 19.24059 -81.14954 37008 ft 465 kts 102°
2026-05-09 15:50 19.22572 -81.08179 37008 ft 465 kts 102°
2026-05-09 15:50 19.21090 -81.01444 37008 ft 465 kts 102°
2026-05-09 15:51 19.19610 -80.94738 37009 ft 465 kts 102°
2026-05-09 15:51 19.18135 -80.88062 37010 ft 465 kts 102°
2026-05-09 15:52 19.15928 -80.78096 37012 ft 464 kts 102°
2026-05-09 15:53 19.14457 -80.71468 37010 ft 463 kts 102°
2026-05-09 15:53 19.12989 -80.64871 37015 ft 463 kts 102°
2026-05-09 15:54 19.11510 -80.58235 37017 ft 463 kts 102°
2026-05-09 15:54 19.10042 -80.51652 37018 ft 462 kts 102°
2026-05-09 15:55 19.08565 -80.45046 37021 ft 462 kts 102°
2026-05-09 15:55 19.07090 -80.38459 37021 ft 461 kts 102°
2026-05-09 15:56 19.05619 -80.31907 37022 ft 460 kts 102°
2026-05-09 15:56 19.04139 -80.25319 37020 ft 460 kts 102°
2026-05-09 15:57 19.02665 -80.18771 37024 ft 460 kts 102°
2026-05-09 15:57 19.01183 -80.12203 37024 ft 460 kts 102°
2026-05-09 15:58 18.99702 -80.05650 37029 ft 459 kts 102°
2026-05-09 15:58 18.98222 -79.99117 37027 ft 458 kts 102°
2026-05-09 15:59 18.96742 -79.92591 37023 ft 458 kts 102°
2026-05-09 15:59 18.95235 -79.85955 37022 ft 458 kts 102°
2026-05-09 16:00 18.93746 -79.79411 37022 ft 458 kts 102°
2026-05-09 16:00 18.92234 -79.72777 37022 ft 458 kts 102°
2026-05-09 16:01 18.90733 -79.66202 37011 ft 458 kts 102°
2026-05-09 16:01 18.89205 -79.59516 37009 ft 458 kts 102°
2026-05-09 16:02 18.87676 -79.52845 37004 ft 458 kts 102°
2026-05-09 16:02 18.85426 -79.43045 37002 ft 458 kts 102°
2026-05-09 16:03 18.83912 -79.36464 37005 ft 458 kts 102°
2026-05-09 16:03 18.82338 -79.29637 37004 ft 457 kts 102°
2026-05-09 16:04 18.80755 -79.22777 37004 ft 456 kts 102°
2026-05-09 16:04 18.79169 -79.15921 37004 ft 456 kts 102°
2026-05-09 16:05 18.77598 -79.09135 37004 ft 457 kts 102°
2026-05-09 16:05 18.76031 -79.02384 37005 ft 457 kts 102°
2026-05-09 16:06 18.74493 -78.95773 37009 ft 457 kts 102°
2026-05-09 16:06 18.72934 -78.89093 37010 ft 456 kts 102°
2026-05-09 16:07 18.71354 -78.82330 37006 ft 455 kts 102°
2026-05-09 16:07 18.69754 -78.75490 37008 ft 456 kts 102°
2026-05-09 16:08 18.68167 -78.68714 37009 ft 456 kts 102°
2026-05-09 16:08 18.66562 -78.61879 37008 ft 456 kts 102°
2026-05-09 16:09 18.64951 -78.55033 36891 ft 453 kts 102°
2026-05-09 16:09 18.64148 -78.51618 36259 ft 452 kts 102°
2026-05-09 16:09 18.63326 -78.48128 35209 ft 456 kts 102°
2026-05-09 16:10 18.62502 -78.44630 34116 ft 461 kts 102°
2026-05-09 16:10 18.61677 -78.41131 33049 ft 464 kts 102°
2026-05-09 16:10 18.60835 -78.37571 32029 ft 467 kts 102°
2026-05-09 16:10 18.59987 -78.33989 30990 ft 471 kts 103°
2026-05-09 16:11 18.59131 -78.30377 29911 ft 474 kts 103°
2026-05-09 16:11 18.58266 -78.26731 28790 ft 477 kts 102°
2026-05-09 16:11 18.57388 -78.23031 27586 ft 480 kts 102°
2026-05-09 16:11 18.56491 -78.19261 26383 ft 481 kts 102°
2026-05-09 16:12 18.55606 -78.15537 25556 ft 474 kts 102°
2026-05-09 16:12 18.54735 -78.11880 24786 ft 467 kts 102°
2026-05-09 16:12 18.53869 -78.08237 23963 ft 461 kts 102°
2026-05-09 16:12 18.53011 -78.04635 23128 ft 456 kts 102°
2026-05-09 16:13 18.52166 -78.01093 22386 ft 450 kts 102°
2026-05-09 16:13 18.51345 -77.97648 21747 ft 442 kts 102°
2026-05-09 16:13 18.50453 -77.94273 21137 ft 436 kts 106°
2026-05-09 16:13 18.49318 -77.91080 20545 ft 431 kts 111°
2026-05-09 16:14 18.47949 -77.88042 19953 ft 425 kts 115°
2026-05-09 16:14 18.46483 -77.85059 19383 ft 419 kts 115°
2026-05-09 16:14 18.45002 -77.82079 18810 ft 413 kts 115°
2026-05-09 16:14 18.43548 -77.79153 18242 ft 407 kts 115°
2026-05-09 16:15 18.42101 -77.76236 17685 ft 402 kts 115°
2026-05-09 16:15 18.40733 -77.73476 17120 ft 397 kts 115°
2026-05-09 16:15 18.39345 -77.70670 16565 ft 393 kts 115°
2026-05-09 16:15 18.37986 -77.67924 15984 ft 390 kts 115°
2026-05-09 16:16 18.36632 -77.65192 15411 ft 387 kts 116°
2026-05-09 16:16 18.35248 -77.62398 14826 ft 383 kts 116°
2026-05-09 16:16 18.33920 -77.59721 14265 ft 380 kts 116°
2026-05-09 16:16 18.32578 -77.57013 13681 ft 376 kts 116°
2026-05-09 16:17 18.31230 -77.54297 13093 ft 373 kts 116°
2026-05-09 16:17 18.29906 -77.51629 12521 ft 369 kts 116°
2026-05-09 16:17 18.28602 -77.49000 11940 ft 365 kts 116°
2026-05-09 16:17 18.27319 -77.46413 11362 ft 361 kts 116°
2026-05-09 16:18 18.26052 -77.43864 11061 ft 347 kts 116°
2026-05-09 16:18 18.24833 -77.41415 10848 ft 332 kts 116°
2026-05-09 16:18 18.23672 -77.39081 10637 ft 319 kts 116°
2026-05-09 16:18 18.22568 -77.36859 10443 ft 306 kts 116°
2026-05-09 16:19 18.21504 -77.34722 10270 ft 293 kts 116°
2026-05-09 16:19 18.20472 -77.32655 10119 ft 281 kts 116°
2026-05-09 16:19 18.19480 -77.30666 9731 ft 279 kts 116°
2026-05-09 16:19 18.18493 -77.28685 9323 ft 278 kts 116°
2026-05-09 16:20 18.17509 -77.26713 8927 ft 276 kts 116°
2026-05-09 16:20 18.16534 -77.24761 8535 ft 275 kts 116°
2026-05-09 16:20 18.15558 -77.22806 8148 ft 273 kts 116°
2026-05-09 16:20 18.14607 -77.20901 7761 ft 271 kts 116°
2026-05-09 16:21 18.13650 -77.18987 7382 ft 270 kts 116°
2026-05-09 16:21 18.12614 -77.17100 6986 ft 269 kts 125°
2026-05-09 16:21 18.11198 -77.15585 6607 ft 270 kts 140°
2026-05-09 16:21 18.09544 -77.14330 6233 ft 269 kts 142°
2026-05-09 16:22 18.07875 -77.13118 5866 ft 267 kts 142°
2026-05-09 16:22 18.06328 -77.11741 5473 ft 263 kts 127°
2026-05-09 16:22 18.05365 -77.10013 5115 ft 258 kts 111°
2026-05-09 16:22 18.04671 -77.08189 4765 ft 256 kts 110°
2026-05-09 16:23 18.03995 -77.06340 4420 ft 255 kts 110°
2026-05-09 16:23 18.03318 -77.04495 4227 ft 246 kts 108°
2026-05-09 16:23 18.03153 -77.02662 4159 ft 231 kts 81°
2026-05-09 16:23 18.03396 -77.00942 4056 ft 220 kts 94°
2026-05-09 16:24 18.02827 -76.99352 3890 ft 213 kts 127°
2026-05-09 16:24 18.01816 -76.98098 3719 ft 206 kts 126°
2026-05-09 16:24 18.00959 -76.96815 3517 ft 200 kts 120°
2026-05-09 16:24 18.00256 -76.95499 3272 ft 195 kts 115°
2026-05-09 16:25 17.99630 -76.94125 2997 ft 193 kts 114°
2026-05-09 16:25 17.99052 -76.92790 2742 ft 189 kts 113°
2026-05-09 16:25 17.98486 -76.91412 2372 ft 191 kts 113°
2026-05-09 16:25 17.97942 -76.90044 2074 ft 183 kts 112°
2026-05-09 16:26 17.97452 -76.88794 1862 ft 164 kts 112°
2026-05-09 16:26 17.97012 -76.87660 1614 ft 148 kts 113°
2026-05-09 16:26 17.96616 -76.86646 1373 ft 134 kts 112°
2026-05-09 16:26 17.96236 -76.85670 1189 ft 132 kts 112°
2026-05-09 16:27 17.95865 -76.84713 1008 ft 132 kts 112°
2026-05-09 16:27 17.95488 -76.83737 818 ft 131 kts 111°
2026-05-09 16:27 17.95114 -76.82768 631 ft 131 kts 112°
2026-05-09 16:27 17.94749 -76.81823 447 ft 130 kts 111°
2026-05-09 16:28 17.94378 -76.80865 256 ft 129 kts 112°
2026-05-09 16:28 17.94011 -76.79910 69 ft 128 kts 111°
2026-05-09 16:28 17.93676 -76.79036 34 ft 100 kts 111°
2026-05-09 16:28 17.93448 -76.78441 32 ft 63 kts 111°
2026-05-09 16:29 17.93305 -76.78069 33 ft 39 kts 111°
2026-05-09 16:29 17.93218 -76.77855 34 ft 12 kts 115°
2026-05-09 16:29 17.93222 -76.77763 34 ft 12 kts 41°
2026-05-09 16:29 17.93316 -76.77734 34 ft 13 kts 349°
2026-05-09 16:30 17.93373 -76.77822 34 ft 14 kts 289°
2026-05-09 16:30 17.93416 -76.77926 33 ft 13 kts 308°
2026-05-09 16:30 17.93515 -76.77923 34 ft 14 kts 24°
2026-05-09 16:30 17.93604 -76.77880 34 ft 7 kts 22°
2026-05-09 16:31 17.93648 -76.77911 34 ft 7 kts 292°
2026-05-09 16:31 17.93659 -76.77941 34 ft 1 kts 290°
2026-05-09 16:31 17.93659 -76.77943 34 ft 0 kts 290°